This is the latest recevied weather packets stored in our database for station/object NR6G-12. If no packets are shown the sender has not sent any weather packets the latest 10 day(s).
| Time | Temp. | Humidity | Pressure | Rain* | Wind** | Luminosity | Snow |
|---|---|---|---|---|---|---|---|
| 1777520761 | 11.67° C | 60% | 1016.4 hPa | 0 mm | - | - | - |
| 1777518961 | 11.67° C | 54% | 1016.3 hPa | 0 mm | - | - | - |
| 1777518241 | 11.67° C | 56% | 1016.2 hPa | 0 mm | - | - | - |
| 1777517881 | 11.67° C | 55% | 1016.1 hPa | 0 mm | - | - | - |
| 1777517161 | 12.22° C | 54% | 1016.1 hPa | 0 mm | - | - | - |
| 1777516081 | 12.78° C | 52% | 1016 hPa | 0 mm | - | - | - |
| 1777515001 | 13.33° C | 53% | 1016 hPa | 0 mm | - | - | - |
| 1777514641 | 13.33° C | 51% | 1016 hPa | 0 mm | - | - | - |
| 1777514281 | 13.33° C | 50% | 1015.9 hPa | 0 mm | - | - | - |
| 1777512841 | 13.89° C | 53% | 1015.9 hPa | 0 mm | - | - | - |
| 1777512121 | 14.44° C | 55% | 1015.9 hPa | 0 mm | - | - | - |
| 1777511041 | 15° C | 48% | 1016 hPa | 0 mm | - | - | - |
| 1777510681 | 15° C | 46% | 1016 hPa | 0 mm | - | - | - |
| 1777509961 | 15° C | 49% | 1015.9 hPa | 0 mm | - | - | - |
| 1777509241 | 15.56° C | 53% | 1015.9 hPa | 0 mm | - | - | - |
| 1777507801 | 15.56° C | 49% | 1016.1 hPa | 0 mm | - | - | - |
| 1777506001 | 16.11° C | 47% | 1016.2 hPa | 0 mm | - | - | - |
| 1777505641 | 16.11° C | 51% | 1016.3 hPa | 0 mm | - | - | - |
| 1777505281 | 16.11° C | 53% | 1016.3 hPa | 0 mm | - | - | - |
| 1777504921 | 16.11° C | 54% | 1016.3 hPa | 0 mm | - | - | - |
| 1777504201 | 16.11° C | 48% | 1016.5 hPa | 0 mm | - | - | - |
| 1777503481 | 15.56° C | 54% | 1016.6 hPa | 0 mm | - | - | - |
| 1777501681 | 16.11° C | 58% | 1016.8 hPa | 0 mm | - | - | - |
| 1777500961 | 15.56° C | 53% | 1017 hPa | 0 mm | - | - | - |
| 1777500601 | 15.56° C | 53% | 1017 hPa | 0 mm | - | - | - |
* Rain latest hour (hover to see other rain measurements)
** Current wind speed in m/s (hover to see current wind gust speed)